Stations météo

réclame
Mon MeteoGroup
Gueret-St Laurent, France (7361): Température de l'air & dewpoint: 17.09.2017 22:00:00 - 23.09.2017 22:00:00 (CEST)Gueret-St Laurent, France (7361): Température de l'air 5cm: 17.09.2017 22:00:00 - 23.09.2017 22:00:00 (CEST)Gueret-St Laurent, France (7361): Température de l'air -20cm & Température de l'air -100cm: 17.09.2017 22:00:00 - 23.09.2017 22:00:00 (CEST)Gueret-St Laurent, France (7361): Vitesse du vent & gusts: 17.09.2017 22:00:00 - 23.09.2017 22:00:00 (CEST)Gueret-St Laurent, France (7361): Direction du vent: 17.09.2017 22:00:00 - 23.09.2017 22:00:00 (CEST)Gueret-St Laurent, France (7361): reduced air pressure: 17.09.2017 22:00:00 - 23.09.2017 22:00:00 (CEST)Gueret-St Laurent, France (7361): visibility: 17.09.2017 22:00:00 - 23.09.2017 22:00:00 (CEST)Gueret-St Laurent, France (7361): Ensoleillement: 17.09.2017 22:00:00 - 23.09.2017 22:00:00 (CEST)Gueret-St Laurent, France (7361): Quantités de précipitations: 17.09.2017 22:00:00 - 23.09.2017 22:00:00 (CEST)
Date & Time tt [°C] td [°C] tt 5cm [°C] tt -20cm [°C] tt -100cm [°C] ff [km/h] ff [knt] fx [km/h] fx [knt] dd ppp [hPa] vv [km] sd [min] rr [mm]
23.09.2017 22:00:00 - - - - - - - - - - - - - -
23.09.2017 21:00:00 14,2 12,4 10,5 15,4 16,7 3 2 6 3 SE 1019,8 20 0 0,0
23.09.2017 20:00:00 16,6 12,1 12,4 15,3 16,7 2 1 5 3 S 1019,1 20 11 0,0
23.09.2017 19:00:00 21,2 12,1 17,9 15,2 16,7 2 1 5 3 NW 1018,4 20 57 0,0
23.09.2017 18:00:00 23,4 11,8 22,4 15,2 16,6 0 0 11 6 N 1018,0 20 60 0,0
23.09.2017 17:00:00 23,0 10,1 24,4 15,1 16,7 4 2 12 6 NNW 1018,2 20 60 0,0
23.09.2017 16:00:00 22,2 9,4 24,4 15,0 16,7 5 3 11 6 NNW 1018,6 20 19 0,0
23.09.2017 15:00:00 22,5 12,1 25,7 15,0 16,7 4 2 12 6 WNW 1019,0 20 51 0,0
23.09.2017 14:00:00 21,7 12,3 25,7 15,0 16,7 6 3 10 6 NNW 1019,4 20 56 0,0
23.09.2017 13:00:00 21,6 12,7 25,1 15,1 16,7 3 1 11 6 ESE 1019,4 20 60 0,0
23.09.2017 12:00:00 18,8 11,8 20,6 15,1 16,7 6 4 11 6 ESE 1020,2 20 60 0,0
23.09.2017 11:00:00 15,4 11,4 15,4 15,2 16,7 4 2 10 5 E 1021,2 20 58 0,0
23.09.2017 10:00:00 11,4 10,5 10,4 15,2 16,7 7 4 11 6 ESE 1022,0 20 41 0,0
23.09.2017 09:00:00 8,5 8,2 6,4 15,3 16,7 5 3 14 8 E 1022,5 13 58 0,0
23.09.2017 08:00:00 6,8 6,7 4,8 15,3 16,7 9 5 13 7 ESE 1022,8 6 0 0,0
23.09.2017 07:00:00 6,0 5,7 3,8 15,4 16,7 6 3 9 5 ESE 1022,8 2,6 0 0,0
23.09.2017 06:00:00 5,9 5,5 3,6 15,4 16,7 0 0 3 1 N 1023,1 0,2 0 0,0
23.09.2017 05:00:00 6,6 6,2 4,2 15,4 16,7 0 0 5 3 N 1023,3 0,2 0 0,0
23.09.2017 04:00:00 7,0 6,6 4,4 15,4 16,7 0 0 5 3 N 1023,6 0,5 0 0,0
23.09.2017 03:00:00 7,4 6,8 4,9 15,4 16,7 3 2 6 3 ESE 1023,7 2,0 0 0,0
23.09.2017 02:00:00 8,6 8,0 5,4 15,4 16,8 2 1 4 2 E 1023,9 0,5 0 0,0
23.09.2017 01:00:00 9,6 9,0 6,2 15,4 16,7 3 1 5 3 SE 1023,9 3,3 0 0,0
23.09.2017 00:00:00 10,3 9,4 7,4 15,4 16,8 0 0 5 3 N 1024,0 11 0 0,0
22.09.2017 23:00:00 10,9 9,7 7,5 15,3 16,8 0 0 0 0 N 1023,9 12 0 0,0
22.09.2017 22:00:00 12,5 10,7 10,6 15,2 16,8 0 0 3 2 N 1023,3 20 0 0,0
22.09.2017 21:00:00 12,8 10,9 10,2 15,2 16,8 0 0 4 2 N 1022,8 20 0 0,0
22.09.2017 20:00:00 14,7 11,1 11,5 15,1 16,8 3 2 9 5 WNW 1022,0 20 10 0,0
22.09.2017 19:00:00 18,0 11,1 16,7 15,0 16,8 4 2 13 7 NW 1021,2 20 58 0,0
22.09.2017 18:00:00 19,1 11,6 19,2 14,9 16,8 7 4 16 9 NW 1021,0 20 20 0,0
22.09.2017 17:00:00 19,5 12,0 19,9 14,8 16,8 6 4 19 11 NW 1020,9 20 40 0,0
22.09.2017 16:00:00 20,0 12,5 22,2 14,8 16,8 8 4 18 10 NW 1020,8 20 42 0,0
22.09.2017 15:00:00 20,8 12,0 23,0 14,7 16,8 10 6 19 10 N 1020,6 20 51 0,0
22.09.2017 14:00:00 20,3 11,0 25,5 14,7 16,8 8 4 19 10 NNW 1020,8 20 60 0,0
22.09.2017 13:00:00 20,1 9,3 24,2 14,8 16,8 5 3 13 7 NW 1020,7 20 58 0,0
22.09.2017 12:00:00 18,8 10,4 20,7 14,8 16,8 2 1 7 4 NE 1020,9 20 60 0,0
22.09.2017 11:00:00 15,0 10,2 14,9 14,9 16,8 4 2 6 4 E 1021,4 20 60 0,0
22.09.2017 10:00:00 11,1 8,5 10,7 14,9 16,9 4 2 10 5 ESE 1021,9 20 53 0,0
22.09.2017 09:00:00 8,5 8,1 4,5 15,0 16,9 4 2 11 6 ESE 1022,0 20 30 0,0
22.09.2017 08:00:00 5,7 5,1 3,3 15,0 16,9 4 2 10 5 E 1022,3 19 0 0,0
22.09.2017 07:00:00 5,4 5,0 2,9 15,1 16,9 4 2 8 4 ESE 1021,9 20 0 0,0
22.09.2017 06:00:00 5,6 5,0 3,0 15,1 16,9 3 1 6 3 E 1021,6 3,2 0 0,0
22.09.2017 05:00:00 6,5 5,8 4,2 15,1 16,9 0 0 8 4 N 1021,6 16 0 0,0
22.09.2017 04:00:00 7,8 7,4 5,3 15,2 16,9 5 3 13 7 ESE 1021,1 20 0 0,0
22.09.2017 03:00:00 7,2 6,5 5,2 15,2 16,9 4 2 8 4 ESE 1021,3 20 0 0,0
22.09.2017 02:00:00 8,1 7,7 5,1 15,2 16,9 5 3 8 4 E 1021,1 19 0 0,0
22.09.2017 01:00:00 7,9 7,3 5,1 15,1 16,9 0 0 4 2 N 1020,8 18 0 0,0
22.09.2017 00:00:00 8,7 7,8 5,5 15,1 16,9 0 0 5 3 N 1020,7 19 0 0,0
21.09.2017 23:00:00 9,4 8,3 6,3 15,0 16,9 4 2 6 3 ESE 1020,3 20 0 0,0
21.09.2017 22:00:00 10,5 9,1 6,9 14,9 16,9 2 1 5 3 SE 1019,9 20 0 0,0
21.09.2017 21:00:00 12,0 9,6 8,2 14,8 16,9 0 0 3 2 N 1019,2 20 0 0,0
21.09.2017 20:00:00 14,9 9,5 10,1 14,7 17,0 0 0 5 3 N 1018,0 8 0 0,0
21.09.2017 19:00:00 20,2 8,8 16,0 14,6 16,9 0 0 8 4 N 1016,7 20 42 0,0
21.09.2017 18:00:00 22,0 8,5 21,3 14,6 17,0 3 2 14 7 NW 1016,1 20 60 0,0
21.09.2017 17:00:00 22,6 9,0 23,2 14,5 16,9 4 2 12 6 NW 1015,9 20 58 0,0
21.09.2017 16:00:00 22,3 7,7 25,5 14,4 17,0 2 1 12 6 SE 1016,0 19 58 0,0
21.09.2017 15:00:00 21,3 8,5 25,4 14,4 17,0 4 2 13 7 NNW 1016,4 17 58 0,0
21.09.2017 14:00:00 20,8 9,7 26,5 14,4 17,0 5 3 12 6 WNW 1016,6 20 60 0,0
21.09.2017 13:00:00 19,7 8,1 25,2 14,4 17,0 3 1 11 6 E 1017,0 20 60 0,0
21.09.2017 12:00:00 18,5 10,3 20,6 14,5 17,0 0 0 6 3 N 1017,6 20 60 0,0
21.09.2017 11:00:00 14,5 9,1 14,7 14,5 17,0 4 2 11 6 E 1018,5 20 60 0,0
21.09.2017 10:00:00 10,1 6,6 8,1 14,6 17,0 10 6 16 9 ESE 1019,1 20 60 0,0
21.09.2017 09:00:00 6,2 4,8 1,5 14,7 17,0 6 4 15 8 E 1019,6 20 60 0,0
21.09.2017 08:00:00 2,8 2,2 0,7 14,7 17,1 6 3 10 5 ESE 1020,1 20 0 0,0
21.09.2017 07:00:00 4,1 3,2 2,1 14,8 17,1 5 3 14 8 SE 1019,6 20 0 0,0
21.09.2017 06:00:00 4,4 3,7 1,9 14,8 17,0 7 4 13 7 SE 1019,8 20 0 0,0
21.09.2017 05:00:00 4,5 3,9 2,4 14,9 17,1 7 4 11 6 SE 1020,0 20 0 0,0
21.09.2017 04:00:00 4,1 3,7 1,7 14,9 17,1 6 3 11 6 E 1020,4 19 0 0,0
21.09.2017 03:00:00 4,9 4,6 1,5 15,0 17,1 9 5 13 7 ESE 1020,7 20 0 0,0
21.09.2017 02:00:00 3,6 2,7 1,4 15,0 17,1 4 2 8 5 ESE 1021,4 8 0 0,0
21.09.2017 01:00:00 4,9 4,5 1,7 15,0 17,1 4 2 8 4 E 1021,2 10 0 0,0
21.09.2017 00:00:00 5,2 4,3 2,3 15,0 17,1 0 0 6 3 N 1021,6 10 0 0,0
20.09.2017 23:00:00 6,3 5,4 3,0 15,0 17,1 4 2 4 2 ESE 1021,6 14 0 0,0
20.09.2017 22:00:00 7,6 6,5 4,3 14,9 17,1 3 2 4 2 SSE 1021,6 20 0 0,0
20.09.2017 21:00:00 8,7 6,3 5,8 14,8 17,1 4 2 7 4 SSE 1021,4 20 0 0,0
20.09.2017 20:00:00 11,8 6,5 7,2 14,7 17,1 0 0 13 7 N 1020,9 7 5 0,0
20.09.2017 19:00:00 15,4 6,4 14,3 14,7 17,1 10 5 17 9 ENE 1020,6 20 60 0,0
20.09.2017 18:00:00 16,8 5,4 17,4 14,6 17,1 5 3 17 9 ENE 1020,5 20 60 0,0
20.09.2017 17:00:00 17,3 5,6 20,3 14,5 17,1 8 4 18 10 E 1020,8 20 60 0,0
20.09.2017 16:00:00 17,2 5,2 16,5 14,5 17,2 5 3 15 8 ESE 1021,5 20 43 0,0
20.09.2017 15:00:00 16,3 5,6 19,0 14,5 17,2 9 5 19 11 NE 1022,0 20 46 0,0
20.09.2017 14:00:00 16,1 5,4 22,3 14,5 17,2 10 6 25 14 ENE 1022,5 17 60 0,0
20.09.2017 13:00:00 15,9 8,1 20,7 14,6 17,2 6 3 17 9 SE 1022,8 20 60 0,0
20.09.2017 12:00:00 13,9 7,2 17,2 14,6 17,2 7 4 11 6 SSE 1023,9 20 60 0,0
20.09.2017 11:00:00 10,6 9,4 9,7 14,7 17,2 5 3 12 6 ESE 1024,7 20 60 0,0
20.09.2017 10:00:00 6,0 5,9 4,5 14,7 17,2 8 4 17 9 ESE 1025,5 6 35 0,0
20.09.2017 09:00:00 3,5 3,4 2,0 14,8 17,2 9 5 14 8 ESE 1025,9 2,8 40 0,0
20.09.2017 08:00:00 2,8 2,7 1,9 14,9 17,2 6 3 11 6 ESE 1026,1 1,4 2 0,0
20.09.2017 07:00:00 2,9 2,8 2,8 14,9 17,2 6 3 13 7 ESE 1025,9 0,2 0 0,0
20.09.2017 06:00:00 3,0 2,9 2,9 15,0 17,2 6 3 11 6 ESE 1025,8 0,2 0 0,0
20.09.2017 05:00:00 3,4 3,3 2,9 15,0 17,2 5 3 12 6 ESE 1026,0 0,3 0 0,0
20.09.2017 04:00:00 3,4 3,3 1,1 15,1 17,3 6 4 11 6 ESE 1025,8 0,2 0 0,0
20.09.2017 03:00:00 3,1 2,8 1,2 15,2 17,3 0 0 7 4 N 1026,1 0,4 0 0,0
20.09.2017 02:00:00 3,3 2,7 0,9 15,2 17,3 3 2 8 4 E 1026,1 0,2 0 0,0
20.09.2017 01:00:00 4,0 3,6 1,2 15,2 17,3 2 1 4 2 ESE 1026,1 0,2 0 0,0
20.09.2017 00:00:00 5,1 4,5 2,5 15,2 17,3 0 0 4 2 N 1026,0 0,4 0 0,0
19.09.2017 23:00:00 5,6 4,7 2,7 15,2 17,3 3 1 4 2 E 1026,0 0,3 0 0,0
19.09.2017 22:00:00 7,0 6,1 3,2 15,2 17,3 2 1 5 3 ESE 1025,4 0,3 0 0,0
19.09.2017 21:00:00 8,6 7,2 4,8 15,1 17,3 2 1 4 2 S 1024,7 3,0 0 0,0
19.09.2017 20:00:00 10,7 8,5 9,5 15,1 17,3 3 2 7 4 WSW 1023,7 20 7 0,0
19.09.2017 19:00:00 12,4 8,7 12,1 15,1 17,3 3 1 13 7 NW 1023,2 20 11 0,0
19.09.2017 18:00:00 12,6 8,5 12,0 15,0 17,3 5 3 22 12 NW 1022,6 20 13 0,0
19.09.2017 17:00:00 13,6 8,6 11,2 15,0 17,3 8 4 21 11 WNW 1022,2 20 25 0,8
19.09.2017 16:00:00 12,4 9,0 11,5 15,0 17,3 10 6 22 12 NNW 1022,6 13 0 0,8
19.09.2017 15:00:00 12,9 8,6 12,0 15,0 17,4 6 3 28 15 NNW 1022,1 20 10 0,2
19.09.2017 14:00:00 13,9 7,4 15,2 15,0 17,4 8 4 27 15 NW 1022,0 20 4 0,0
19.09.2017 13:00:00 13,1 8,2 12,5 15,1 17,4 9 5 24 13 NW 1022,2 20 0 0,0
19.09.2017 12:00:00 12,8 8,5 13,0 15,1 17,4 10 5 24 13 WNW 1021,9 20 30 0,0
19.09.2017 11:00:00 10,5 9,6 11,0 15,2 17,4 9 5 25 13 W 1022,4 18 0 0,0
19.09.2017 10:00:00 8,2 8,1 7,7 15,2 17,4 3 1 10 5 SSE 1022,5 16 0 0,0
19.09.2017 09:00:00 6,5 6,2 4,7 15,3 17,4 0 0 5 3 N 1022,6 20 0 0,0
19.09.2017 08:00:00 4,8 4,4 3,6 15,3 17,4 3 2 5 3 E 1022,6 6 1 0,0
19.09.2017 07:00:00 5,2 4,8 4,3 15,4 17,4 2 1 4 2 E 1022,1 15 0 0,0
19.09.2017 06:00:00 5,4 5,0 5,1 15,4 17,4 2 1 3 2 E 1022,2 17 0 0,0
19.09.2017 05:00:00 5,3 4,9 4,4 15,5 17,4 0 0 3 2 N 1022,4 17 0 0,0
19.09.2017 04:00:00 5,2 4,8 4,1 15,5 17,4 0 0 3 1 N 1022,4 16 0 0,0
19.09.2017 03:00:00 5,6 5,2 4,8 15,5 17,4 0 0 3 2 N 1022,6 15 0 0,0
19.09.2017 02:00:00 5,6 5,3 2,1 15,5 17,4 2 1 6 3 E 1022,5 17 0 0,0
19.09.2017 01:00:00 4,8 4,1 2,5 15,5 17,4 3 1 7 4 E 1022,4 10 0 0,0
19.09.2017 00:00:00 5,5 4,8 3,5 15,6 17,5 2 1 6 3 ENE 1022,4 5 0 0,0
18.09.2017 23:00:00 6,5 5,8 4,4 15,5 17,5 2 1 8 4 E 1022,3 19 0 0,0
18.09.2017 22:00:00 6,7 5,5 3,5 15,5 17,5 4 2 6 3 E 1021,9 16 0 0,0
18.09.2017 21:00:00 8,0 6,0 4,3 15,4 17,5 0 0 4 2 N 1021,1 20 0 0,0
18.09.2017 20:00:00 11,1 6,4 7,7 15,3 17,5 3 2 13 7 WSW 1019,8 17 7 0,0
18.09.2017 19:00:00 14,8 6,4 13,4 15,3 17,5 4 2 16 9 NW 1018,7 20 47 0,0
18.09.2017 18:00:00 14,6 5,9 14,6 15,2 17,5 8 4 25 13 NNW 1018,4 20 45 0,0
18.09.2017 17:00:00 15,8 6,5 15,0 15,2 17,5 8 5 23 13 NW 1018,0 20 36 0,0
18.09.2017 16:00:00 15,6 6,6 17,2 15,1 17,5 9 5 23 12 NNW 1017,8 20 55 0,0
18.09.2017 15:00:00 15,4 7,2 16,9 15,1 17,5 10 6 23 12 NW 1017,9 20 50 0,0
18.09.2017 14:00:00 15,9 7,9 16,6 15,1 17,5 6 3 17 9 N 1017,7 20 47 0,0
18.09.2017 13:00:00 14,2 7,9 17,1 15,2 17,5 6 3 18 10 WNW 1018,2 20 49 0,0
18.09.2017 12:00:00 13,6 8,4 18,9 15,2 17,5 5 3 12 6 NNW 1018,1 20 60 0,0
18.09.2017 11:00:00 11,0 9,7 12,0 15,3 17,6 0 0 5 3 N 1018,6 19 45 0,0
18.09.2017 10:00:00 7,9 7,8 7,8 15,3 17,6 0 0 4 2 N 1018,8 0,8 42 0,0
18.09.2017 09:00:00 5,9 5,8 4,6 15,4 17,6 0 0 5 3 N 1018,8 0,3 13 0,0
18.09.2017 08:00:00 4,8 4,7 1,8 15,5 17,6 3 2 6 3 E 1018,7 0,2 0 0,0
18.09.2017 07:00:00 3,6 3,2 1,6 15,5 17,6 3 2 8 5 ESE 1018,8 0,2 0 0,0
18.09.2017 06:00:00 4,8 4,7 2,1 15,6 17,6 4 2 10 5 E 1018,3 0,4 0 0,0
18.09.2017 05:00:00 4,4 4,0 3,3 15,7 17,6 3 2 6 4 ESE 1018,4 0,4 0 0,0
18.09.2017 04:00:00 6,0 5,7 3,1 15,7 17,6 4 2 10 5 ESE 1018,2 9 0 0,0
18.09.2017 03:00:00 4,7 4,3 3,0 15,7 17,6 3 2 6 3 E 1018,7 0,4 0 0,0
18.09.2017 02:00:00 5,7 5,4 2,9 15,8 17,6 3 2 6 3 SE 1018,5 1,4 0 0,0
18.09.2017 01:00:00 5,9 5,6 3,2 15,8 17,6 3 1 8 4 SE 1018,7 0,6 0 0,0
18.09.2017 00:00:00 6,1 5,5 4,1 15,8 17,7 4 2 7 4 E 1018,5 0,2 0 0,0
17.09.2017 23:00:00 7,3 6,6 4,3 15,8 17,7 2 1 8 4 ESE 1018,0 0,7 0 0,0
17.09.2017 22:00:00 8,1 6,9 6,0 15,8 17,7 3 2 6 4 SSE 1017,8 17 0 0,0

tt = Température de l'air
td = dewpoint
tt 5cm = Température de l'air 5cm
tt -20cm = Température de l'air -20cm
tt -100cm = Température de l'air -100cm
ff = Vitesse du vent
fx = gusts
dd = Direction du vent
ppp = reduced air pressure
vv = visibility
sd = Ensoleillement
rr = Quantités de précipitations

stations d'obs. à proximité